Location: Amsterdam
(30.7274°N, 84.4357°W)
Time: 15:56:14
(UTC+00:00)

Oscar 19 - Visible Passes

Search period start: 08 September 2024 00:00
Search period end: 18 September 2024 00:00
Orbit: 772 x 787 km, 98.9° (Epoch: 07 September)

Date Brightness Start Highest point End Pass type
(mag) Time Alt. Az. Time Alt. Az. Time Alt. Az.
08 Sep 11.6 10:39:48 10° NNE 10:44:52 53° E 10:49:54 10° S visible
09 Sep 13.1 10:08:02 10° NE 10:12:10 24° E 10:16:17 10° SSE visible
10 Sep 14.1 09:39:16 10° E 09:39:20 10° E 09:39:26 10° E visible
11 Sep 11.5 10:41:16 10° NNE 10:46:22 54° ESE 10:51:24 10° S visible
12 Sep 13.0 10:09:29 10° NE 10:13:40 24° E 10:17:48 10° SSE visible
13 Sep 13.9 09:40:02 10° E 09:40:49 10° E 09:41:36 10° ESE visible
14 Sep 11.5 10:42:44 10° NNE 10:47:49 56° E 10:52:52 10° S visible
15 Sep 13.0 10:10:55 10° NE 10:15:08 25° E 10:19:19 10° SSE visible
16 Sep 13.9 09:41:12 10° E 09:42:18 11° E 09:43:23 10° ESE visible
17 Sep 11.4 10:44:10 10° NNE 10:49:17 57° ESE 10:54:20 10° S visible
